Regional Weather Roundup
Issued by NWS Sterling, VA

Home | Current Version | Previous Version | Text Only | Print | Product List | Glossary On
Versions: 1 2 3 4 5 6 7 8 9 10 11 12 13 14 15 16 17 18 19 20 21 22 23 24 25 26 27 28 29 30 31 32 33 34 35 36 37 38 39 40 41 42 43 44 45 46 47 48 49 50
030
ASUS41 KLWX 161210
RWRLWX

REGIONAL WEATHER ROUNDUP
NATIONAL WEATHER SERVICE BALTIMORE MD/WASHINGTON DC
700 AM EST MON JAN 16 2017

Note: "FAIR" indicates few or no clouds below 12,000 feet
with no significant weather and/or obstructions to visibility.
 TC=TEMPERATURE CELSIUS

 * =Non NWS site. Station does not report precipitation (e.g. rain,
    snow, etc.), thunder, or fog.

DCZ001-MDZ009-015-VAZ040>042-051-053>054-161300-
WASHINGTON METRO

CITY           SKY/WX    TMP DP  RH WIND       PRES   REMARKS
WASHINGTON NAT CLOUDY    38  27  64 CALM      30.47R
DULLES         CLOUDY    37  27  67 E5        30.44S
ANDREWS AFB    CLOUDY    36  27  69 E3        30.44S
FT BELVOIR     CLOUDY    38  27  64 CALM      30.46R
QUANTICO       CLOUDY    39  33  79 SE3       30.47R
COLLEGE PARK*  CLOUDY    34  27  75 CALM      30.47R
LEESBURG*      CLOUDY    36  30  80 MISG      30.45S
MANASSAS*      CLOUDY   N/A N/A N/A CALM      30.46
GAITHERSBURG*  CLOUDY    34  21  60 E3        30.48S

$$

MDZ006>007-011-014-161300-
BALTIMORE METRO

CITY           SKY/WX    TMP DP  RH WIND       PRES   REMARKS
BWI AIRPORT    CLOUDY    34  26  72 E3        30.46R
MD SCIENCE CTR   N/A     35  22  58 MISG      30.47R
MARTIN STATE   CLOUDY    30  27  86 CALM      30.49R
ANNAPOLIS      CLOUDY    37  25  61 CALM      30.47R
FORT MEADE*    CLOUDY    34  28  80 CALM      30.49S

$$

MDZ012-015-019>023-161300-
MARYLAND EASTERN SHORE

CITY           SKY/WX    TMP DP  RH WIND       PRES   REMARKS
OCEAN CITY     CLOUDY    30  29  96 N6        30.46R
SALISBURY      MOCLDY    32  27  81 CALM      30.45S
BAY BRIDGE AP* CLOUDY    34  25  69 MISG      30.47R
CAMBRIDGE*     CLOUDY    34  28  80 CALM      30.46R
EASTON*        CLOUDY    34  27  75 MISG      30.49S

$$

MDZ017>025-161300-
SOUTHERN MARYLAND

CITY           SKY/WX    TMP DP  RH WIND       PRES   REMARKS
PATUXENT RIVER CLOUDY    38  32  79 E5        30.45S
ST INIGOES     NOT AVBL
LEONARDTOWN*   CLOUDY    36  32  87 CALM      30.47S

$$

MDZ003>005-161300-
NORTH CENTRAL MARYLAND

CITY           SKY/WX    TMP DP  RH WIND       PRES   REMARKS
FREDERICK*     CLOUDY    32  28  86 N3        30.49R
HAGERSTOWN APT CLOUDY    30  22  72 NW5       30.42R
WESTMINSTER*     N/A     28  21  74 SE3       30.42S

$$

MDZ501>502-161300-
WESTERN MARYLAND

CITY           SKY/WX    TMP DP  RH WIND       PRES   REMARKS
OAKLAND*       FOG       30  30 100 SE9       30.28R VSB 1/4 WCI  22
CUMBERLAND*    CLOUDY    34  32  93 CALM      30.44R

$$

VAZ025>031-161300-
SHENANDOAH VALLEY

CITY           SKY/WX    TMP DP  RH WIND       PRES   REMARKS
WINCHESTER*    CLOUDY    32  27  80 CALM      30.41R
FRONT ROYAL*   NOT AVBL
LURAY*         CLOUDY    36  30  80 CALM      30.39S
NEW MARKET*    CLOUDY    37  27  67 CALM      30.38S
STAUNTON*      CLOUDY    36  33  91 CALM      30.40S
WAYNESBORO*    CLOUDY    37  37  97 E3        30.38R

$$

WVZ021-048>050-054>055-161300-
EASTERN WEST VIRGINIA PANHANDLE

CITY           SKY/WX    TMP DP  RH WIND       PRES   REMARKS
MARTINSBURG    CLOUDY    32  23  69 N5        30.42R
PETERSBURG*    CLOUDY    38  32  79 CALM      30.38S

$$

VAZ036>039-050-161300-
CENTRAL FOOTHILLS

CITY           SKY/WX    TMP DP  RH WIND       PRES   REMARKS
CHARLOTTESVILL CLOUDY    39  35  86 CALM      30.42R
CULPEPER*      CLOUDY    39  32  77 CALM      30.45R
ORANGE*          N/A     37  37 100 CALM      30.44S
GORDONSVILLE*  CLOUDY    38  38 100 CALM      30.42F FOG
WARRENTON*     CLOUDY    39  30  69 CALM      30.44R

$$

VAZ055>057-161300-
NORTH AND CENTRAL PIEDMONT

CITY           SKY/WX    TMP DP  RH WIND       PRES   REMARKS
FREDERICKSBRG* CLOUDY    39  33  78 CALM      30.45S
STAFFORD*      CLOUDY    37  30  74 CALM      30.49R

$$

NCZ024-NYZ072-PAZ021-071-VAZ022-071-161300-
OTHER REGIONAL OBSERVATIONS

CITY           SKY/WX    TMP DP  RH WIND       PRES   REMARKS
NEW YORK CITY  CLEAR     30  19  63 N3        30.47R
PHILADELPHIA   CLOUDY    28  19  69 NW6       30.48R
PITTSBURGH     CLOUDY    26  21  81 CALM      30.33S
ROANOKE        CLOUDY    40  37  89 SE6       30.41R
RICHMOND       CLOUDY    37  36  96 CALM      30.44S
RALEIGH        CLOUDY    45  32  60 E7        30.40R

$$

ANZ530>537-161300-
MARINE OBSERVATIONS

STATION/POSITION TIME  TEMP    WIND        PRES
                       AIR SEA DIR/SP/G
                 (UTC) (F)     (DEG/KT/KT) (MB)
THOMAS PT LIGHT  1200   35 38   70/  3/  3   N/A
BALT KEY BRIDGE  1142   33      20/  5/  5 1032.0R
COVE POINT       1142   37     120/  2/  4 1031.8S
LEWISETTA        1142   39 42  110/  5/  6 1030.8R
SOLOMONS ISLAND  1142   38 40  100/  5/  6   N/A
PINEY POINT      1136          110/  6/  7   N/A

$$





USA.gov is the U.S. government's official web portal to all federal, state and local government web resources and services.